Location: Forli
(44.2227°N, 12.0407°E)
Time: 06:18:47
(UTC+02:00)

ISS - Visible Passes

Search period start: 15 June 2024 00:00
Search period end: 25 June 2024 00:00
Orbit: 409 x 421 km, 51.6° (Epoch: 14 June)

Date Brightness Start Highest point End Pass type
(mag) Time Alt. Az. Time Alt. Az. Time Alt. Az.
22 Jun -1.6 04:27:29 10° S 04:29:48 18° SE 04:32:08 10° E visible
23 Jun -1.1 03:40:22 10° SE 03:40:54 10° SE 03:41:26 10° ESE visible
24 Jun -3.1 04:25:17 14° SSW 04:27:57 43° SE 04:31:09 10° ENE visible
